Location: Ladirat
(44.8151°N, 1.9702°E)
Time: 10:24:21
(UTC+00:00)

Cosmos 2221 - Pass Details

Date: 15 May 2026
Orbit: 569 x 586 km, 82.5° (Epoch: 6 June)

Event Time Altitude Azimuth Distance (km) Brightness Sun altitude
Exits shadow 22:03:20 18° 73° (ENE) 1,465 4.4 -21.8°
Drops below altitude 10° 22:05:29 10° 43° (NE) 1,900 5.3 -22.0°
Sets 22:08:13 0° 25° (NNE) 2,808 6.5 -22.2°
